Time,TemperatureF,DewpointF,PressureIn,WindDirection,WindDirectionDegrees,WindSpeedMPH,WindSpeedGustMPH,Humidity,HourlyPrecipIn,Conditions,Clouds,dailyrainin,SoftwareType,DateUTC
2014-02-21 00:00:00,76.1,71.9,30.08,ESE,122,0.0,0.0,87,0.00,,---,0.00,VWS V15.00,2014-02-21 05:00:00,
2014-02-21 00:01:00,76.2,71.7,30.09,SE,124,0.0,0.0,86,0.00,,---,0.00,VWS V15.00,2014-02-21 05:01:00,
2014-02-21 00:02:00,76.2,71.7,30.09,SSE,153,0.0,0.0,86,0.00,,---,0.00,VWS V15.00,2014-02-21 05:02:00,
2014-02-21 00:03:00,76.2,71.7,30.09,East,96,0.0,0.0,86,0.00,,---,0.00,VWS V15.00,2014-02-21 05:03:00,
2014-02-21 00:04:00,76.2,71.7,30.09,SE,139,0.0,0.0,86,0.00,,---,0.00,VWS V15.00,2014-02-21 05:04:00,
2014-02-21 00:05:00,76.2,71.7,30.09,ESE,104,0.0,0.0,86,0.00,,---,0.00,VWS V15.00,2014-02-21 05:05:00,
2014-02-21 00:08:00,76.2,72.1,30.09,SE,136,0.0,0.0,87,0.00,,---,0.00,VWS V15.00,2014-02-21 05:08:00,
2014-02-21 00:12:00,76.1,71.9,30.09,SSE,149,0.0,0.0,87,0.00,,---,0.00,VWS V15.00,2014-02-21 05:12:00,
2014-02-21 00:15:00,76.1,71.6,30.07,ESE,120,0.0,0.0,86,0.00,,---,0.00,VWS V15.00,2014-02-21 05:15:00,
2014-02-21 00:17:00,76.1,71.6,30.08,SE,138,0.0,0.0,86,0.00,,---,0.00,VWS V15.00,2014-02-21 05:17:00,
2014-02-21 00:22:00,76.2,71.7,30.08,SSE,148,0.0,0.0,86,0.00,,---,0.00,VWS V15.00,2014-02-21 05:22:00,
2014-02-21 00:27:00,76.1,71.6,30.08,SE,131,0.0,0.0,86,0.00,,---,0.00,VWS V15.00,2014-02-21 05:27:00,
2014-02-21 00:30:00,75.9,71.4,30.06,SSE,160,0.0,0.0,86,0.00,,---,0.00,VWS V15.00,2014-02-21 05:30:00,
2014-02-21 00:32:00,76.1,71.6,30.09,East,89,0.0,0.0,86,0.00,,---,0.00,VWS V15.00,2014-02-21 05:32:00,
2014-02-21 00:37:00,76.1,71.9,30.08,ENE,60,0.0,0.0,87,0.00,,---,0.00,VWS V15.00,2014-02-21 05:37:00,
2014-02-21 00:42:00,76.2,71.7,30.08,ESE,122,0.0,0.0,86,0.00,,---,0.00,VWS V15.00,2014-02-21 05:42:00,
2014-02-21 00:45:00,75.9,71.8,30.06,SSE,148,0.0,0.0,87,0.00,,---,0.00,VWS V15.00,2014-02-21 05:45:00,
2014-02-21 00:47:00,76.2,71.7,30.08,SSE,155,0.0,0.0,86,0.00,,---,0.00,VWS V15.00,2014-02-21 05:47:00,
2014-02-21 00:52:00,76.1,71.6,30.08,SW,222,0.0,0.0,86,0.00,,---,0.00,VWS V15.00,2014-02-21 05:52:00,
2014-02-21 00:57:00,76.1,71.9,30.08,SE,139,0.0,0.0,87,0.00,,---,0.00,VWS V15.00,2014-02-21 05:57:00,
2014-02-21 01:00:00,75.9,71.4,30.05,SSE,151,0.0,0.0,86,0.00,,---,0.00,VWS V15.00,2014-02-21 06:00:00,
2014-02-21 01:02:00,76.1,71.9,30.08,South,173,0.0,0.0,87,0.00,,---,0.00,VWS V15.00,2014-02-21 06:02:00,
2014-02-21 01:07:00,76.1,71.9,30.07,SSE,150,0.0,0.0,87,0.00,,---,0.00,VWS V15.00,2014-02-21 06:07:00,
2014-02-21 01:12:00,76.1,71.6,30.07,SE,143,0.0,0.0,86,0.00,,---,0.00,VWS V15.00,2014-02-21 06:12:00,
2014-02-21 01:15:00,75.8,71.3,30.05,SSE,148,0.0,0.0,86,0.00,,---,0.00,VWS V15.00,2014-02-21 06:15:00,
2014-02-21 01:17:00,76.1,71.6,30.07,SSE,151,0.0,0.0,86,0.00,,---,0.00,VWS V15.00,2014-02-21 06:17:00,
2014-02-21 01:22:00,76.1,71.6,30.07,ESE,116,0.0,0.0,86,0.00,,---,0.00,VWS V15.00,2014-02-21 06:22:00,
2014-02-21 01:27:00,76.0,71.5,30.06,SSE,149,0.0,0.0,86,0.00,,---,0.00,VWS V15.00,2014-02-21 06:27:00,
2014-02-21 01:30:00,75.8,71.3,30.05,SE,131,0.0,0.0,86,0.00,,---,0.00,VWS V15.00,2014-02-21 06:30:00,
2014-02-21 01:32:00,75.9,71.4,30.06,SSE,152,0.0,0.0,86,0.00,,---,0.00,VWS V15.00,2014-02-21 06:32:00,
2014-02-21 01:37:00,76.0,71.5,30.06,East,96,0.0,0.0,86,0.00,,---,0.00,VWS V15.00,2014-02-21 06:37:00,
2014-02-21 01:42:00,76.0,71.5,30.05,SSE,149,0.0,0.0,86,0.00,,---,0.00,VWS V15.00,2014-02-21 06:42:00,
2014-02-21 01:45:00,75.7,71.2,30.05,SSE,167,0.0,0.0,86,0.00,,---,0.00,VWS V15.00,2014-02-21 06:45:00,
2014-02-21 01:47:00,76.0,71.9,30.05,SSE,162,0.0,0.0,87,0.00,,---,0.00,VWS V15.00,2014-02-21 06:47:00,
2014-02-21 01:52:00,76.0,71.5,30.05,SE,137,0.0,0.0,86,0.00,,---,0.00,VWS V15.00,2014-02-21 06:52:00,
2014-02-21 01:57:00,75.9,71.4,30.05,SE,141,0.0,0.0,86,0.00,,---,0.00,VWS V15.00,2014-02-21 06:57:00,
2014-02-21 02:00:00,75.6,71.5,30.04,SE,124,0.0,0.0,87,0.00,,---,0.00,VWS V15.00,2014-02-21 07:00:00,
2014-02-21 02:02:00,75.9,71.4,30.05,South,184,0.0,0.0,86,0.00,,---,0.00,VWS V15.00,2014-02-21 07:02:00,
2014-02-21 02:07:00,75.9,71.4,30.05,SSE,168,0.0,0.0,86,0.00,,---,0.00,VWS V15.00,2014-02-21 07:07:00,
2014-02-21 02:12:00,75.8,71.3,30.05,SE,136,0.0,0.0,86,0.00,,---,0.00,VWS V15.00,2014-02-21 07:12:00,
2014-02-21 02:15:00,75.5,71.4,30.05,SSW,195,0.0,0.0,87,0.00,,---,0.00,VWS V15.00,2014-02-21 07:15:00,
2014-02-21 02:18:00,75.8,71.3,30.04,SE,134,0.0,0.0,86,0.00,,---,0.00,VWS V15.00,2014-02-21 07:18:00,
2014-02-21 02:23:00,75.8,71.3,30.05,SSW,200,0.0,0.0,86,0.00,,---,0.00,VWS V15.00,2014-02-21 07:23:00,
2014-02-21 02:28:00,75.8,71.3,30.05,SSE,150,0.0,0.0,86,0.00,,---,0.00,VWS V15.00,2014-02-21 07:28:00,
2014-02-21 02:30:00,75.5,71.4,30.05,SE,143,0.0,0.0,87,0.00,,---,0.00,VWS V15.00,2014-02-21 07:30:00,
2014-02-21 02:33:00,75.8,71.3,30.05,South,186,0.0,0.0,86,0.00,,---,0.00,VWS V15.00,2014-02-21 07:33:00,
2014-02-21 02:38:00,75.7,71.2,30.05,South,170,0.0,0.0,86,0.00,,---,0.00,VWS V15.00,2014-02-21 07:38:00,
2014-02-21 02:43:00,75.7,71.2,30.05,SSE,148,0.0,0.0,86,0.00,,---,0.00,VWS V15.00,2014-02-21 07:43:00,
2014-02-21 02:45:00,75.5,71.4,30.05,South,181,0.0,0.0,87,0.00,,---,0.00,VWS V15.00,2014-02-21 07:45:00,
2014-02-21 02:48:00,75.7,71.2,30.05,SE,126,0.0,0.0,86,0.00,,---,0.00,VWS V15.00,2014-02-21 07:48:00,
2014-02-21 02:53:00,75.7,71.2,30.05,SE,129,0.0,0.0,86,0.00,,---,0.00,VWS V15.00,2014-02-21 07:53:00,
2014-02-21 02:58:00,75.6,71.1,30.04,SE,136,0.0,0.0,86,0.00,,---,0.00,VWS V15.00,2014-02-21 07:58:00,
2014-02-21 03:00:00,75.4,71.6,30.04,SE,146,0.0,0.0,88,0.00,,---,0.00,VWS V15.00,2014-02-21 08:00:00,
2014-02-21 03:03:00,75.6,71.5,30.04,SE,130,0.0,0.0,87,0.00,,---,0.00,VWS V15.00,2014-02-21 08:03:00,
2014-02-21 03:08:00,75.6,71.5,30.05,SSE,150,0.0,0.0,87,0.00,,---,0.00,VWS V15.00,2014-02-21 08:08:00,
2014-02-21 03:13:00,75.5,71.4,30.05,SSE,148,0.0,0.0,87,0.00,,---,0.00,VWS V15.00,2014-02-21 08:13:00,
2014-02-21 03:15:00,75.3,71.5,30.04,SE,130,0.0,0.0,88,0.00,,---,0.00,VWS V15.00,2014-02-21 08:15:00,
2014-02-21 03:18:00,75.5,71.4,30.05,ESE,115,0.0,0.0,87,0.00,,---,0.00,VWS V15.00,2014-02-21 08:18:00,
2014-02-21 03:23:00,75.5,71.4,30.05,SE,124,0.0,0.0,87,0.00,,---,0.00,VWS V15.00,2014-02-21 08:23:00,
2014-02-21 03:28:00,75.5,71.4,30.04,SE,134,0.0,0.0,87,0.00,,---,0.00,VWS V15.00,2014-02-21 08:28:00,
2014-02-21 03:30:00,75.1,71.6,30.05,SSE,147,0.0,0.0,89,0.00,,---,0.00,VWS V15.00,2014-02-21 08:30:00,
2014-02-21 03:33:00,75.4,71.3,30.04,SE,136,0.0,0.0,87,0.00,,---,0.00,VWS V15.00,2014-02-21 08:33:00,
2014-02-21 03:38:00,75.4,71.3,30.05,SSE,153,0.0,0.0,87,0.00,,---,0.00,VWS V15.00,2014-02-21 08:38:00,
2014-02-21 03:43:00,75.5,71.4,30.04,SE,130,0.0,0.0,87,0.00,,---,0.00,VWS V15.00,2014-02-21 08:43:00,
2014-02-21 03:45:00,74.9,71.4,30.06,South,191,0.0,0.0,89,0.00,,---,0.00,VWS V15.00,2014-02-21 08:45:00,
2014-02-21 03:48:00,75.5,71.4,30.05,South,171,0.0,0.0,87,0.00,,---,0.00,VWS V15.00,2014-02-21 08:48:00,
2014-02-21 03:53:00,75.5,71.4,30.04,ESE,122,0.0,0.0,87,0.00,,---,0.00,VWS V15.00,2014-02-21 08:53:00,
2014-02-21 03:58:00,75.4,71.3,30.04,SE,141,0.0,0.0,87,0.00,,---,0.00,VWS V15.00,2014-02-21 08:58:00,
2014-02-21 04:00:00,74.9,71.1,30.05,ESE,119,0.0,0.0,88,0.00,,---,0.00,VWS V15.00,2014-02-21 09:00:00,
2014-02-21 04:03:00,75.4,71.6,30.05,SE,139,0.0,0.0,88,0.00,,---,0.00,VWS V15.00,2014-02-21 09:03:00,
2014-02-21 04:08:00,75.3,71.5,30.05,SSE,148,0.0,0.0,88,0.00,,---,0.00,VWS V15.00,2014-02-21 09:08:00,
2014-02-21 04:13:00,75.3,71.5,30.04,SE,143,0.0,0.0,88,0.00,,---,0.00,VWS V15.00,2014-02-21 09:13:00,
2014-02-21 04:15:00,74.8,71.0,30.06,SSE,154,0.0,0.0,88,0.00,,---,0.00,VWS V15.00,2014-02-21 09:15:00,
2014-02-21 04:18:00,75.3,71.5,30.04,South,191,0.0,0.0,88,0.00,,---,0.00,VWS V15.00,2014-02-21 09:18:00,
2014-02-21 04:23:00,75.2,71.4,30.04,SE,141,0.0,0.0,88,0.00,,---,0.00,VWS V15.00,2014-02-21 09:23:00,
2014-02-21 04:28:00,75.1,71.6,30.05,South,176,0.0,0.0,89,0.00,,---,0.00,VWS V15.00,2014-02-21 09:28:00,
2014-02-21 04:30:00,74.7,70.9,30.06,SSE,151,0.0,0.0,88,0.00,,---,0.00,VWS V15.00,2014-02-21 09:30:00,
2014-02-21 04:33:00,75.1,71.6,30.05,SSE,158,0.0,0.0,89,0.00,,---,0.00,VWS V15.00,2014-02-21 09:33:00,
2014-02-21 04:38:00,75.1,71.6,30.05,SSW,194,0.0,0.0,89,0.00,,---,0.00,VWS V15.00,2014-02-21 09:38:00,
2014-02-21 04:43:00,74.9,71.4,30.05,SSE,150,0.0,0.0,89,0.00,,---,0.00,VWS V15.00,2014-02-21 09:43:00,
2014-02-21 04:45:00,74.4,70.9,30.06,South,176,0.0,0.0,89,0.00,,---,0.00,VWS V15.00,2014-02-21 09:45:00,
2014-02-21 04:48:00,74.8,71.3,30.05,ESE,105,0.0,0.0,89,0.00,,---,0.00,VWS V15.00,2014-02-21 09:48:00,
2014-02-21 04:53:00,74.9,71.4,30.05,SE,141,0.0,0.0,89,0.00,,---,0.00,VWS V15.00,2014-02-21 09:53:00,
2014-02-21 04:58:00,74.9,71.4,30.05,SSE,153,0.0,0.0,89,0.00,,---,0.00,VWS V15.00,2014-02-21 09:58:00,
2014-02-21 05:00:00,74.4,70.9,30.06,South,175,0.0,0.0,89,0.00,,---,0.00,VWS V15.00,2014-02-21 10:00:00,
2014-02-21 05:03:00,74.9,71.1,30.05,SSE,152,0.0,0.0,88,0.00,,---,0.00,VWS V15.00,2014-02-21 10:03:00,
2014-02-21 05:09:00,74.9,71.1,30.05,SE,131,0.0,0.0,88,0.00,,---,0.00,VWS V15.00,2014-02-21 10:09:00,
2014-02-21 05:14:00,74.8,71.0,30.06,SE,143,0.0,0.0,88,0.00,,---,0.00,VWS V15.00,2014-02-21 10:14:00,
2014-02-21 05:15:00,74.3,70.8,30.07,SE,142,0.0,0.0,89,0.00,,---,0.00,VWS V15.00,2014-02-21 10:15:00,
2014-02-21 05:19:00,74.8,71.0,30.06,SSE,156,0.0,0.0,88,0.00,,---,0.00,VWS V15.00,2014-02-21 10:19:00,
2014-02-21 05:24:00,74.7,70.9,30.06,SE,139,0.0,0.0,88,0.00,,---,0.00,VWS V15.00,2014-02-21 10:24:00,
2014-02-21 05:29:00,74.7,71.2,30.06,SSE,147,0.0,0.0,89,0.00,,---,0.00,VWS V15.00,2014-02-21 10:29:00,
2014-02-21 05:30:00,74.1,71.0,30.08,SSE,154,0.0,0.0,90,0.00,,---,0.00,VWS V15.00,2014-02-21 10:30:00,
2014-02-21 05:34:00,74.7,71.2,30.06,ESE,121,0.0,0.0,89,0.00,,---,0.00,VWS V15.00,2014-02-21 10:34:00,
2014-02-21 05:39:00,74.6,71.2,30.06,SE,139,0.0,0.0,89,0.00,,---,0.00,VWS V15.00,2014-02-21 10:39:00,
2014-02-21 05:44:00,74.5,71.1,30.06,SSE,147,0.0,0.0,89,0.00,,---,0.00,VWS V15.00,2014-02-21 10:44:00,
2014-02-21 05:45:00,74.1,71.0,30.08,SSE,153,0.0,0.0,90,0.00,,---,0.00,VWS V15.00,2014-02-21 10:45:00,
2014-02-21 05:49:00,74.4,70.9,30.06,SSE,158,0.0,0.0,89,0.00,,---,0.00,VWS V15.00,2014-02-21 10:49:00,
2014-02-21 05:54:00,74.4,70.9,30.06,SE,140,0.0,0.0,89,0.00,,---,0.00,VWS V15.00,2014-02-21 10:54:00,
2014-02-21 05:59:00,74.4,70.9,30.06,SSW,198,0.0,0.0,89,0.00,,---,0.00,VWS V15.00,2014-02-21 10:59:00,
2014-02-21 06:00:00,74.3,70.8,30.08,SE,144,0.0,0.0,89,0.00,,---,0.00,VWS V15.00,2014-02-21 11:00:00,
2014-02-21 06:04:00,74.4,70.9,30.07,SSW,203,0.0,0.0,89,0.00,,---,0.00,VWS V15.00,2014-02-21 11:04:00,
2014-02-21 06:09:00,74.3,71.2,30.07,SE,143,0.0,0.0,90,0.00,,---,0.00,VWS V15.00,2014-02-21 11:09:00,
2014-02-21 06:14:00,74.3,70.8,30.07,SSE,160,0.0,0.0,89,0.00,,---,0.00,VWS V15.00,2014-02-21 11:14:00,
2014-02-21 06:15:00,74.5,71.1,30.09,ESE,121,0.0,0.0,89,0.00,,---,0.00,VWS V15.00,2014-02-21 11:15:00,
2014-02-21 06:19:00,74.3,71.2,30.07,SE,134,0.0,0.0,90,0.00,,---,0.00,VWS V15.00,2014-02-21 11:19:00,
2014-02-21 06:24:00,74.2,71.1,30.07,SSE,150,0.0,0.0,90,0.00,,---,0.00,VWS V15.00,2014-02-21 11:24:00,
2014-02-21 06:29:00,74.1,71.0,30.07,SE,136,0.0,0.0,90,0.00,,---,0.00,VWS V15.00,2014-02-21 11:29:00,
2014-02-21 06:30:00,74.9,71.4,30.09,SE,141,0.0,0.0,89,0.00,,---,0.00,VWS V15.00,2014-02-21 11:30:00,
2014-02-21 06:34:00,74.2,71.1,30.07,SSE,147,0.0,0.0,90,0.00,,---,0.00,VWS V15.00,2014-02-21 11:34:00,
2014-02-21 06:39:00,74.1,71.0,30.07,South,173,0.0,0.0,90,0.00,,---,0.00,VWS V15.00,2014-02-21 11:39:00,
2014-02-21 06:44:00,74.1,71.0,30.08,SE,138,0.0,0.0,90,0.00,,---,0.00,VWS V15.00,2014-02-21 11:44:00,
2014-02-21 06:45:00,75.6,71.8,30.10,South,173,0.0,0.0,88,0.00,,---,0.00,VWS V15.00,2014-02-21 11:45:00,
2014-02-21 06:49:00,74.2,71.1,30.08,SE,135,0.0,0.0,90,0.00,,---,0.00,VWS V15.00,2014-02-21 11:49:00,
2014-02-21 06:54:00,74.2,71.1,30.08,SSE,148,0.0,0.0,90,0.00,,---,0.00,VWS V15.00,2014-02-21 11:54:00,
2014-02-21 06:59:00,74.3,71.2,30.08,ESE,110,0.0,0.0,90,0.00,,---,0.00,VWS V15.00,2014-02-21 11:59:00,
2014-02-21 07:00:00,77.4,72.5,30.09,South,188,0.0,0.0,85,0.00,,---,0.00,VWS V15.00,2014-02-21 12:00:00,
2014-02-21 07:04:00,74.3,71.2,30.08,SE,136,0.0,0.0,90,0.00,,---,0.00,VWS V15.00,2014-02-21 12:04:00,
2014-02-21 07:09:00,74.4,71.3,30.08,SE,144,0.0,0.0,90,0.00,,---,0.00,VWS V15.00,2014-02-21 12:09:00,
2014-02-21 07:14:00,74.4,70.9,30.09,SSE,152,0.0,0.0,89,0.00,,---,0.00,VWS V15.00,2014-02-21 12:14:00,
2014-02-21 07:15:00,78.7,72.8,30.10,South,184,0.0,0.0,82,0.00,,---,0.00,VWS V15.00,2014-02-21 12:15:00,
2014-02-21 07:19:00,74.5,71.1,30.09,South,187,0.0,0.0,89,0.00,,---,0.00,VWS V15.00,2014-02-21 12:19:00,
2014-02-21 07:24:00,74.6,71.2,30.09,SSE,155,0.0,0.0,89,0.00,,---,0.00,VWS V15.00,2014-02-21 12:24:00,
2014-02-21 07:29:00,74.8,71.3,30.09,South,184,0.0,0.0,89,0.00,,---,0.00,VWS V15.00,2014-02-21 12:29:00,
2014-02-21 07:30:00,79.2,72.9,30.11,SSE,154,0.0,0.0,81,0.00,,---,0.00,VWS V15.00,2014-02-21 12:30:00,
2014-02-21 07:34:00,75.2,71.4,30.09,SSE,147,0.0,0.0,88,0.00,,---,0.00,VWS V15.00,2014-02-21 12:34:00,
2014-02-21 07:39:00,75.4,71.6,30.10,SSE,150,0.0,0.0,88,0.00,,---,0.00,VWS V15.00,2014-02-21 12:39:00,
2014-02-21 07:44:00,75.6,71.8,30.10,South,177,0.0,0.0,88,0.00,,---,0.00,VWS V15.00,2014-02-21 12:44:00,
2014-02-21 07:45:00,79.3,72.6,30.11,South,177,0.0,0.0,80,0.00,,---,0.00,VWS V15.00,2014-02-21 12:45:00,
2014-02-21 07:49:00,76.0,71.9,30.09,South,182,0.0,0.0,87,0.00,,---,0.00,VWS V15.00,2014-02-21 12:49:00,
2014-02-21 07:54:00,76.7,72.2,30.09,ESE,111,0.0,0.0,86,0.00,,---,0.00,VWS V15.00,2014-02-21 12:54:00,
2014-02-21 07:59:00,77.3,72.4,30.09,SE,139,0.0,0.0,85,0.00,,---,0.00,VWS V15.00,2014-02-21 12:59:00,
2014-02-21 08:00:00,77.4,72.5,30.09,South,188,0.0,0.0,85,0.00,,---,0.00,VWS V15.00,2014-02-21 13:00:00,
2014-02-21 08:05:00,77.9,72.7,30.10,SSW,212,0.0,0.0,84,0.00,,---,0.00,VWS V15.00,2014-02-21 13:05:00,
2014-02-21 08:10:00,78.3,72.7,30.10,SSW,198,0.0,0.0,83,0.00,,---,0.00,VWS V15.00,2014-02-21 13:10:00,
2014-02-21 08:15:00,78.7,72.8,30.10,SE,130,0.0,0.0,82,0.00,,---,0.00,VWS V15.00,2014-02-21 13:15:00,
2014-02-21 08:20:00,78.8,72.5,30.11,SSW,209,0.0,0.0,81,0.00,,---,0.00,VWS V15.00,2014-02-21 13:20:00,
2014-02-21 08:26:00,79.2,72.9,30.11,SSE,152,0.0,0.0,81,0.00,,---,0.00,VWS V15.00,2014-02-21 13:26:00,
2014-02-21 08:30:00,79.7,72.2,30.11,SE,127,0.0,0.0,78,0.01,,---,0.01,VWS V15.00,2014-02-21 13:30:00,
2014-02-21 08:31:00,79.1,72.8,30.11,South,177,0.0,0.0,81,0.00,,---,0.00,VWS V15.00,2014-02-21 13:31:00,
2014-02-21 08:36:00,79.5,72.8,30.11,SSW,196,0.0,0.0,80,0.00,,---,0.00,VWS V15.00,2014-02-21 13:36:00,
2014-02-21 08:41:00,79.6,72.5,30.11,ESE,120,0.0,0.0,79,0.00,,---,0.00,VWS V15.00,2014-02-21 13:41:00,
2014-02-21 08:45:00,81.1,72.4,30.11,South,176,0.0,0.0,75,0.01,,---,0.01,VWS V15.00,2014-02-21 13:45:00,
2014-02-21 08:46:00,79.3,72.6,30.11,SW,235,0.0,0.0,80,0.00,,---,0.00,VWS V15.00,2014-02-21 13:46:00,
2014-02-21 08:51:00,79.4,72.3,30.11,SSE,167,0.0,0.0,79,0.01,,---,0.01,VWS V15.00,2014-02-21 13:51:00,
2014-02-21 08:56:00,79.3,71.8,30.11,SE,142,0.0,0.0,78,0.01,,---,0.01,VWS V15.00,2014-02-21 13:56:00,
2014-02-21 09:00:00,81.5,72.0,30.11,SSE,163,0.0,0.0,73,0.01,,---,0.01,VWS V15.00,2014-02-21 14:00:00,
2014-02-21 09:01:00,79.2,72.1,30.11,SE,134,0.0,0.0,79,0.01,,---,0.01,VWS V15.00,2014-02-21 14:01:00,
2014-02-21 09:06:00,79.6,72.5,30.11,SSE,165,0.0,0.0,79,0.01,,---,0.01,VWS V15.00,2014-02-21 14:06:00,
2014-02-21 09:11:00,80.0,72.5,30.11,ESE,104,0.0,0.0,78,0.01,,---,0.01,VWS V15.00,2014-02-21 14:11:00,
2014-02-21 09:15:00,82.5,72.2,30.11,South,189,0.0,0.0,71,0.01,,---,0.02,VWS V15.00,2014-02-21 14:15:00,
2014-02-21 09:16:00,79.9,72.1,30.11,SSW,198,0.0,0.0,77,0.01,,---,0.01,VWS V15.00,2014-02-21 14:16:00,
2014-02-21 09:21:00,79.9,72.4,30.11,SE,131,0.0,0.0,78,0.01,,---,0.01,VWS V15.00,2014-02-21 14:21:00,
2014-02-21 09:26:00,79.9,72.1,30.11,SE,125,0.0,0.0,77,0.01,,---,0.01,VWS V15.00,2014-02-21 14:26:00,
2014-02-21 09:30:00,82.4,72.1,30.10,SSW,197,0.0,0.0,71,0.02,,---,0.03,VWS V15.00,2014-02-21 14:30:00,
2014-02-21 09:31:00,79.8,72.3,30.11,SSE,159,0.0,0.0,78,0.01,,---,0.01,VWS V15.00,2014-02-21 14:31:00,
2014-02-21 09:36:00,80.3,72.1,30.11,SE,141,0.0,0.0,76,0.01,,---,0.01,VWS V15.00,2014-02-21 14:36:00,
2014-02-21 09:41:00,80.7,72.0,30.11,SE,129,0.0,0.0,75,0.01,,---,0.01,VWS V15.00,2014-02-21 14:41:00,
2014-02-21 09:45:00,82.2,71.9,30.09,SSE,151,0.0,0.0,71,0.02,,---,0.03,VWS V15.00,2014-02-21 14:45:00,
2014-02-21 09:46:00,81.2,72.1,30.11,SE,136,0.0,0.0,74,0.01,,---,0.01,VWS V15.00,2014-02-21 14:46:00,
2014-02-21 09:51:00,81.2,72.1,30.11,SSW,210,0.0,0.0,74,0.01,,---,0.01,VWS V15.00,2014-02-21 14:51:00,
2014-02-21 09:56:00,81.3,72.2,30.11,South,184,0.0,0.0,74,0.01,,---,0.01,VWS V15.00,2014-02-21 14:56:00,
2014-02-21 10:00:00,82.3,71.5,30.09,South,186,0.0,0.0,70,0.02,,---,0.03,VWS V15.00,2014-02-21 15:00:00,
2014-02-21 10:01:00,81.4,71.9,30.11,SSW,193,0.0,0.0,73,0.00,,---,0.01,VWS V15.00,2014-02-21 15:01:00,
2014-02-21 10:06:00,81.3,72.2,30.11,SE,143,0.0,0.0,74,0.00,,---,0.01,VWS V15.00,2014-02-21 15:06:00,
2014-02-21 10:11:00,81.8,72.3,30.11,SE,134,0.0,0.0,73,0.01,,---,0.02,VWS V15.00,2014-02-21 15:11:00,
2014-02-21 10:15:00,83.5,72.3,30.08,SSW,205,0.0,0.0,69,0.02,,---,0.03,VWS V15.00,2014-02-21 15:15:00,
2014-02-21 10:16:00,82.5,72.6,30.11,SSW,193,0.0,0.0,72,0.01,,---,0.02,VWS V15.00,2014-02-21 15:16:00,
2014-02-21 10:21:00,82.2,71.9,30.10,South,187,0.0,0.0,71,0.01,,---,0.02,VWS V15.00,2014-02-21 15:21:00,
2014-02-21 10:26:00,82.5,71.7,30.10,SE,135,0.0,0.0,70,0.02,,---,0.03,VWS V15.00,2014-02-21 15:26:00,
2014-02-21 10:30:00,83.8,71.2,30.07,SSE,148,0.0,0.0,66,0.01,,---,0.03,VWS V15.00,2014-02-21 15:30:00,
2014-02-21 10:31:00,82.4,72.1,30.10,SSE,152,0.0,0.0,71,0.02,,---,0.03,VWS V15.00,2014-02-21 15:31:00,
2014-02-21 10:36:00,82.6,72.2,30.10,SE,127,0.0,0.0,71,0.02,,---,0.03,VWS V15.00,2014-02-21 15:36:00,
2014-02-21 10:41:00,82.2,72.3,30.10,SW,217,0.0,0.0,72,0.02,,---,0.03,VWS V15.00,2014-02-21 15:41:00,
2014-02-21 10:45:00,83.6,71.1,30.06,ESE,102,0.0,0.0,66,0.00,,---,0.03,VWS V15.00,2014-02-21 15:45:00,
2014-02-21 10:46:00,82.3,72.0,30.09,SSE,153,0.0,0.0,71,0.02,,---,0.03,VWS V15.00,2014-02-21 15:46:00,
2014-02-21 10:51:00,82.0,72.1,30.09,SSE,151,0.0,0.0,72,0.02,,---,0.03,VWS V15.00,2014-02-21 15:51:00,
2014-02-21 10:56:00,82.1,71.8,30.09,SE,134,0.0,0.0,71,0.02,,---,0.03,VWS V15.00,2014-02-21 15:56:00,
2014-02-21 11:00:00,83.6,71.1,30.08,SSW,192,0.0,0.0,66,0.00,,---,0.03,VWS V15.00,2014-02-21 16:00:00,
2014-02-21 11:01:00,82.3,71.5,30.09,South,176,0.0,0.0,70,0.02,,---,0.03,VWS V15.00,2014-02-21 16:01:00,
2014-02-21 11:06:00,82.7,71.5,30.08,South,171,0.0,0.0,69,0.02,,---,0.03,VWS V15.00,2014-02-21 16:06:00,
2014-02-21 11:11:00,82.9,71.3,30.08,SE,136,0.0,0.0,68,0.02,,---,0.03,VWS V15.00,2014-02-21 16:11:00,
2014-02-21 11:15:00,83.8,70.3,30.08,South,186,0.0,0.0,64,0.00,,---,0.03,VWS V15.00,2014-02-21 16:15:00,
2014-02-21 11:16:00,83.6,71.5,30.08,SSW,196,0.0,0.0,67,0.01,,---,0.03,VWS V15.00,2014-02-21 16:16:00,
2014-02-21 11:21:00,83.9,71.3,30.07,South,172,0.0,0.0,66,0.01,,---,0.03,VWS V15.00,2014-02-21 16:21:00,
2014-02-21 11:26:00,83.8,71.2,30.07,South,177,0.0,0.0,66,0.01,,---,0.03,VWS V15.00,2014-02-21 16:26:00,
2014-02-21 11:30:00,84.2,71.6,30.08,South,176,0.0,0.0,66,0.00,,---,0.03,VWS V15.00,2014-02-21 16:30:00,
2014-02-21 11:31:00,83.6,71.1,30.07,SE,126,0.0,0.0,66,0.00,,---,0.03,VWS V15.00,2014-02-21 16:31:00,
2014-02-21 11:36:00,83.4,71.3,30.06,SSE,155,0.0,0.0,67,0.00,,---,0.03,VWS V15.00,2014-02-21 16:36:00,
2014-02-21 11:42:00,83.6,71.5,30.06,ESE,116,0.0,0.0,67,0.00,,---,0.03,VWS V15.00,2014-02-21 16:42:00,
2014-02-21 11:45:00,85.2,71.7,30.07,SE,136,0.0,0.0,64,0.00,,---,0.03,VWS V15.00,2014-02-21 16:45:00,
2014-02-21 11:47:00,83.7,71.6,30.06,SE,135,0.0,0.0,67,0.00,,---,0.03,VWS V15.00,2014-02-21 16:47:00,
2014-02-21 11:52:00,83.8,70.8,30.07,SSW,212,0.0,0.0,65,0.00,,---,0.03,VWS V15.00,2014-02-21 16:52:00,
2014-02-21 11:57:00,83.6,71.1,30.07,SSW,192,0.0,0.0,66,0.00,,---,0.03,VWS V15.00,2014-02-21 16:57:00,
2014-02-21 12:00:00,85.9,71.4,30.07,SW,234,0.0,0.0,62,0.00,,---,0.03,VWS V15.00,2014-02-21 17:00:00,
2014-02-21 12:02:00,83.7,71.1,30.08,SW,223,0.0,0.0,66,0.00,,---,0.03,VWS V15.00,2014-02-21 17:02:00,
2014-02-21 12:07:00,84.4,70.4,30.08,SSW,192,0.0,0.0,63,0.00,,---,0.03,VWS V15.00,2014-02-21 17:07:00,
2014-02-21 12:12:00,83.9,70.9,30.08,SSW,195,0.0,0.0,65,0.00,,---,0.03,VWS V15.00,2014-02-21 17:12:00,
2014-02-21 12:15:00,86.9,71.3,30.06,NW,326,0.0,0.0,60,0.00,,---,0.03,VWS V15.00,2014-02-21 17:15:00,
2014-02-21 12:17:00,83.7,70.2,30.08,SSE,162,0.0,0.0,64,0.00,,---,0.03,VWS V15.00,2014-02-21 17:17:00,
2014-02-21 12:22:00,84.0,71.0,30.08,SSW,198,0.0,0.0,65,0.00,,---,0.03,VWS V15.00,2014-02-21 17:22:00,
2014-02-21 12:27:00,84.3,71.3,30.08,ESE,106,0.0,0.0,65,0.00,,---,0.03,VWS V15.00,2014-02-21 17:27:00,
2014-02-21 12:30:00,86.1,70.6,30.06,SSW,202,0.0,0.0,60,0.00,,---,0.03,VWS V15.00,2014-02-21 17:30:00,
2014-02-21 12:32:00,84.2,72.1,30.08,SE,124,0.0,0.0,67,0.00,,---,0.03,VWS V15.00,2014-02-21 17:32:00,
2014-02-21 12:37:00,84.7,72.1,30.07,WNW,282,0.0,0.0,66,0.00,,---,0.03,VWS V15.00,2014-02-21 17:37:00,
2014-02-21 12:42:00,85.2,72.1,30.08,SW,221,0.0,0.0,65,0.00,,---,0.03,VWS V15.00,2014-02-21 17:42:00,
2014-02-21 12:45:00,85.3,70.8,30.05,ESE,109,0.0,0.0,62,0.00,,---,0.03,VWS V15.00,2014-02-21 17:45:00,
2014-02-21 12:47:00,85.2,72.1,30.07,SE,125,0.0,0.0,65,0.00,,---,0.03,VWS V15.00,2014-02-21 17:47:00,
2014-02-21 12:52:00,85.3,70.8,30.07,SW,216,0.0,0.0,62,0.00,,---,0.03,VWS V15.00,2014-02-21 17:52:00,
2014-02-21 12:57:00,86.0,71.5,30.07,SW,214,0.0,0.0,62,0.00,,---,0.03,VWS V15.00,2014-02-21 17:57:00,
2014-02-21 13:00:00,84.7,70.7,30.05,SSE,165,0.0,0.0,63,0.00,,---,0.03,VWS V15.00,2014-02-21 18:00:00,
2014-02-21 13:02:00,85.9,71.4,30.07,East,86,0.0,0.0,62,0.00,,---,0.03,VWS V15.00,2014-02-21 18:02:00,
2014-02-21 13:07:00,86.0,71.0,30.07,SSW,202,0.0,0.0,61,0.00,,---,0.03,VWS V15.00,2014-02-21 18:07:00,
2014-02-21 13:12:00,86.8,71.8,30.07,NW,307,0.0,0.0,61,0.00,,---,0.03,VWS V15.00,2014-02-21 18:12:00,
2014-02-21 13:15:00,84.8,70.3,30.04,SW,217,0.0,0.0,62,0.00,,---,0.03,VWS V15.00,2014-02-21 18:15:00,
2014-02-21 13:17:00,86.9,71.3,30.06,West,262,0.0,0.0,60,0.00,,---,0.03,VWS V15.00,2014-02-21 18:17:00,
2014-02-21 13:22:00,87.2,71.6,30.06,ENE,78,0.0,0.0,60,0.00,,---,0.03,VWS V15.00,2014-02-21 18:22:00,
2014-02-21 13:27:00,85.8,71.3,30.05,SE,135,0.0,0.0,62,0.00,,---,0.03,VWS V15.00,2014-02-21 18:27:00,
2014-02-21 13:30:00,85.3,71.3,30.03,SE,132,0.0,0.0,63,0.00,,---,0.03,VWS V15.00,2014-02-21 18:30:00,
2014-02-21 13:32:00,86.0,71.0,30.05,SSW,199,0.0,0.0,61,0.00,,---,0.03,VWS V15.00,2014-02-21 18:32:00,
2014-02-21 13:37:00,85.4,70.9,30.05,ENE,74,0.0,0.0,62,0.00,,---,0.03,VWS V15.00,2014-02-21 18:37:00,
2014-02-21 13:42:00,85.4,71.4,30.05,SSE,153,0.0,0.0,63,0.00,,---,0.03,VWS V15.00,2014-02-21 18:42:00,
2014-02-21 13:45:00,86.1,69.6,30.03,SSE,153,0.0,0.0,58,0.00,,---,0.03,VWS V15.00,2014-02-21 18:45:00,
2014-02-21 13:47:00,85.1,71.1,30.05,SSE,156,0.0,0.0,63,0.00,,---,0.03,VWS V15.00,2014-02-21 18:47:00,
2014-02-21 13:52:00,84.4,70.0,30.05,SE,128,0.0,0.0,62,0.00,,---,0.03,VWS V15.00,2014-02-21 18:52:00,
2014-02-21 13:57:00,84.4,70.4,30.05,SSE,148,0.0,0.0,63,0.00,,---,0.03,VWS V15.00,2014-02-21 18:57:00,
2014-02-21 14:00:00,85.0,70.1,30.03,ESE,120,0.0,0.0,61,0.00,,---,0.03,VWS V15.00,2014-02-21 19:00:00,
2014-02-21 14:02:00,84.8,70.3,30.05,SE,143,0.0,0.0,62,0.00,,---,0.03,VWS V15.00,2014-02-21 19:02:00,
2014-02-21 14:07:00,84.9,70.4,30.04,South,183,0.0,0.0,62,0.00,,---,0.03,VWS V15.00,2014-02-21 19:07:00,
2014-02-21 14:12:00,84.7,70.2,30.04,SSE,150,0.0,0.0,62,0.00,,---,0.03,VWS V15.00,2014-02-21 19:12:00,
2014-02-21 14:15:00,84.9,71.8,30.03,SE,124,0.0,0.0,65,0.00,,---,0.03,VWS V15.00,2014-02-21 19:15:00,
2014-02-21 14:17:00,84.8,70.3,30.04,South,178,0.0,0.0,62,0.00,,---,0.03,VWS V15.00,2014-02-21 19:17:00,
2014-02-21 14:22:00,85.0,70.1,30.04,SE,126,0.0,0.0,61,0.00,,---,0.03,VWS V15.00,2014-02-21 19:22:00,
2014-02-21 14:27:00,85.1,70.2,30.03,SE,127,0.0,0.0,61,0.00,,---,0.03,VWS V15.00,2014-02-21 19:27:00,
2014-02-21 14:30:00,85.2,70.7,30.03,SW,219,0.0,0.0,62,0.00,,---,0.03,VWS V15.00,2014-02-21 19:30:00,
2014-02-21 14:32:00,85.4,71.8,30.03,ESE,121,0.0,0.0,64,0.00,,---,0.03,VWS V15.00,2014-02-21 19:32:00,
2014-02-21 14:37:00,85.7,70.2,30.03,South,185,0.0,0.0,60,0.00,,---,0.03,VWS V15.00,2014-02-21 19:37:00,
2014-02-21 14:43:00,86.0,70.5,30.03,SSE,158,0.0,0.0,60,0.00,,---,0.03,VWS V15.00,2014-02-21 19:43:00,
2014-02-21 14:45:00,85.0,70.5,30.03,South,177,0.0,0.0,62,0.00,,---,0.03,VWS V15.00,2014-02-21 19:45:00,
2014-02-21 14:48:00,86.1,70.1,30.03,SE,143,0.0,0.0,59,0.00,,---,0.03,VWS V15.00,2014-02-21 19:48:00,
2014-02-21 14:53:00,85.3,69.8,30.03,SSE,160,0.0,0.0,60,0.00,,---,0.03,VWS V15.00,2014-02-21 19:53:00,
2014-02-21 14:58:00,85.2,70.2,30.03,South,169,0.0,0.0,61,0.00,,---,0.03,VWS V15.00,2014-02-21 19:58:00,
2014-02-21 15:00:00,84.2,70.2,30.03,SE,145,0.0,0.0,63,0.00,,---,0.03,VWS V15.00,2014-02-21 20:00:00,
2014-02-21 15:03:00,85.1,71.6,30.03,ESE,111,0.0,0.0,64,0.00,,---,0.03,VWS V15.00,2014-02-21 20:03:00,
2014-02-21 15:08:00,85.4,71.8,30.03,SSW,206,0.0,0.0,64,0.00,,---,0.03,VWS V15.00,2014-02-21 20:08:00,
2014-02-21 15:13:00,85.4,72.3,30.03,SE,143,0.0,0.0,65,0.00,,---,0.03,VWS V15.00,2014-02-21 20:13:00,
2014-02-21 15:15:00,83.9,70.0,30.03,SW,232,0.0,0.0,63,0.00,,---,0.03,VWS V15.00,2014-02-21 20:15:00,
2014-02-21 15:18:00,84.6,72.0,30.03,SSE,159,0.0,0.0,66,0.00,,---,0.03,VWS V15.00,2014-02-21 20:18:00,
2014-02-21 15:23:00,84.2,72.1,30.03,ENE,63,0.0,0.0,67,0.00,,---,0.03,VWS V15.00,2014-02-21 20:23:00,
2014-02-21 15:28:00,85.0,71.9,30.03,SSW,212,0.0,0.0,65,0.00,,---,0.03,VWS V15.00,2014-02-21 20:28:00,
2014-02-21 15:30:00,83.5,70.9,30.03,South,188,0.0,0.0,66,0.00,,---,0.03,VWS V15.00,2014-02-21 20:30:00,
2014-02-21 15:33:00,85.2,70.2,30.03,NNW,328,0.0,0.0,61,0.00,,---,0.03,VWS V15.00,2014-02-21 20:33:00,
2014-02-21 15:38:00,85.0,69.6,30.03,SSE,148,0.0,0.0,60,0.00,,---,0.03,VWS V15.00,2014-02-21 20:38:00,
2014-02-21 15:43:00,85.0,70.1,30.03,SE,130,0.0,0.0,61,0.00,,---,0.03,VWS V15.00,2014-02-21 20:43:00,
2014-02-21 15:45:00,83.2,71.1,30.03,ESE,122,0.0,0.0,67,0.00,,---,0.03,VWS V15.00,2014-02-21 20:45:00,
2014-02-21 15:48:00,84.9,69.5,30.03,South,181,0.0,0.0,60,0.00,,---,0.03,VWS V15.00,2014-02-21 20:48:00,
2014-02-21 15:53:00,84.5,69.6,30.03,SE,133,0.0,0.0,61,0.00,,---,0.03,VWS V15.00,2014-02-21 20:53:00,
2014-02-21 15:58:00,84.3,69.9,30.03,SW,224,0.0,0.0,62,0.00,,---,0.03,VWS V15.00,2014-02-21 20:58:00,
2014-02-21 16:00:00,82.7,71.5,30.03,SW,226,0.0,0.0,69,0.00,,---,0.03,VWS V15.00,2014-02-21 21:00:00,
2014-02-21 16:03:00,84.0,70.1,30.03,SE,131,0.0,0.0,63,0.00,,---,0.03,VWS V15.00,2014-02-21 21:03:00,
2014-02-21 16:08:00,83.9,70.0,30.03,SW,224,0.0,0.0,63,0.00,,---,0.03,VWS V15.00,2014-02-21 21:08:00,
2014-02-21 16:13:00,83.9,70.4,30.03,SW,231,0.0,0.0,64,0.00,,---,0.03,VWS V15.00,2014-02-21 21:13:00,
2014-02-21 16:15:00,82.1,71.3,30.04,SSW,212,0.0,0.0,70,0.00,,---,0.03,VWS V15.00,2014-02-21 21:15:00,
2014-02-21 16:18:00,84.0,70.5,30.03,SW,225,0.0,0.0,64,0.00,,---,0.03,VWS V15.00,2014-02-21 21:18:00,
2014-02-21 16:23:00,83.9,70.9,30.03,South,169,0.0,0.0,65,0.00,,---,0.03,VWS V15.00,2014-02-21 21:23:00,
2014-02-21 16:28:00,83.5,70.9,30.03,SE,136,0.0,0.0,66,0.00,,---,0.03,VWS V15.00,2014-02-21 21:28:00,
2014-02-21 16:30:00,81.6,71.3,30.04,ESE,117,0.0,0.0,71,0.00,,---,0.03,VWS V15.00,2014-02-21 21:30:00,
2014-02-21 16:33:00,83.5,70.9,30.03,South,180,0.0,0.0,66,0.00,,---,0.03,VWS V15.00,2014-02-21 21:33:00,
2014-02-21 16:38:00,83.4,70.4,30.03,SSW,204,0.0,0.0,65,0.00,,---,0.03,VWS V15.00,2014-02-21 21:38:00,
2014-02-21 16:43:00,83.3,71.2,30.03,SE,127,0.0,0.0,67,0.00,,---,0.03,VWS V15.00,2014-02-21 21:43:00,
2014-02-21 16:45:00,81.0,71.1,30.05,SW,231,0.0,0.0,72,0.00,,---,0.03,VWS V15.00,2014-02-21 21:45:00,
2014-02-21 16:48:00,83.1,71.4,30.03,SSE,153,0.0,0.0,68,0.00,,---,0.03,VWS V15.00,2014-02-21 21:48:00,
2014-02-21 16:53:00,83.0,71.8,30.03,ESE,117,0.0,0.0,69,0.00,,---,0.03,VWS V15.00,2014-02-21 21:53:00,
2014-02-21 16:58:00,82.8,71.6,30.03,South,188,0.0,0.0,69,0.00,,---,0.03,VWS V15.00,2014-02-21 21:58:00,
2014-02-21 17:00:00,80.5,71.1,30.05,SW,225,0.0,0.0,73,0.00,,---,0.03,VWS V15.00,2014-02-21 22:00:00,
2014-02-21 17:03:00,82.6,71.8,30.03,ESE,112,0.0,0.0,70,0.00,,---,0.03,VWS V15.00,2014-02-21 22:03:00,
2014-02-21 17:08:00,82.5,71.7,30.04,SW,227,0.0,0.0,70,0.00,,---,0.03,VWS V15.00,2014-02-21 22:08:00,
2014-02-21 17:13:00,82.3,71.1,30.04,South,169,0.0,0.0,69,0.00,,---,0.03,VWS V15.00,2014-02-21 22:13:00,
2014-02-21 17:15:00,79.9,70.9,30.04,SW,236,0.0,0.0,74,0.00,,---,0.03,VWS V15.00,2014-02-21 22:15:00,
2014-02-21 17:18:00,82.0,71.3,30.04,SW,216,0.0,0.0,70,0.00,,---,0.03,VWS V15.00,2014-02-21 22:18:00,
2014-02-21 17:23:00,81.9,71.6,30.04,ESE,112,0.0,0.0,71,0.00,,---,0.03,VWS V15.00,2014-02-21 22:23:00,
2014-02-21 17:28:00,81.6,71.3,30.04,ESE,117,0.0,0.0,71,0.00,,---,0.03,VWS V15.00,2014-02-21 22:28:00,
2014-02-21 17:30:00,79.4,70.8,30.04,SSE,155,0.0,0.0,75,0.00,,---,0.03,VWS V15.00,2014-02-21 22:30:00,
2014-02-21 17:33:00,81.5,71.2,30.05,South,179,0.0,0.0,71,0.00,,---,0.03,VWS V15.00,2014-02-21 22:33:00,
2014-02-21 17:38:00,81.3,71.0,30.05,SSW,207,0.0,0.0,71,0.00,,---,0.03,VWS V15.00,2014-02-21 22:38:00,
2014-02-21 17:43:00,81.1,70.8,30.05,SSE,148,0.0,0.0,71,0.00,,---,0.03,VWS V15.00,2014-02-21 22:43:00,
2014-02-21 17:45:00,78.9,70.7,30.04,WSW,240,0.0,0.0,76,0.00,,---,0.03,VWS V15.00,2014-02-21 22:45:00,
2014-02-21 17:49:00,80.9,71.0,30.05,South,177,0.0,0.0,72,0.00,,---,0.03,VWS V15.00,2014-02-21 22:49:00,
2014-02-21 17:54:00,80.7,70.8,30.05,South,190,0.0,0.0,72,0.00,,---,0.03,VWS V15.00,2014-02-21 22:54:00,
2014-02-21 17:59:00,80.5,71.1,30.05,SE,144,0.0,0.0,73,0.00,,---,0.03,VWS V15.00,2014-02-21 22:59:00,
2014-02-21 18:00:00,78.6,70.8,30.05,South,173,0.0,0.0,77,0.00,,---,0.03,VWS V15.00,2014-02-21 23:00:00,
2014-02-21 18:04:00,80.3,70.9,30.04,West,262,0.0,0.0,73,0.00,,---,0.03,VWS V15.00,2014-02-21 23:04:00,
2014-02-21 18:09:00,80.1,70.7,30.04,SSW,197,0.0,0.0,73,0.00,,---,0.03,VWS V15.00,2014-02-21 23:09:00,
2014-02-21 18:14:00,79.9,70.9,30.04,SSW,194,0.0,0.0,74,0.00,,---,0.03,VWS V15.00,2014-02-21 23:14:00,
2014-02-21 18:15:00,78.2,71.5,30.05,South,181,0.0,0.0,80,0.00,,---,0.03,VWS V15.00,2014-02-21 23:15:00,
2014-02-21 18:19:00,79.8,70.8,30.04,SSE,160,0.0,0.0,74,0.00,,---,0.03,VWS V15.00,2014-02-21 23:19:00,
2014-02-21 18:24:00,79.6,71.0,30.04,SW,217,0.0,0.0,75,0.00,,---,0.03,VWS V15.00,2014-02-21 23:24:00,
2014-02-21 18:29:00,79.4,70.8,30.04,SE,141,0.0,0.0,75,0.00,,---,0.03,VWS V15.00,2014-02-21 23:29:00,
2014-02-21 18:30:00,77.9,71.6,30.06,SE,130,0.0,0.0,81,0.00,,---,0.03,VWS V15.00,2014-02-21 23:30:00,
2014-02-21 18:34:00,79.3,70.7,30.04,South,190,0.0,0.0,75,0.00,,---,0.03,VWS V15.00,2014-02-21 23:34:00,
2014-02-21 18:39:00,79.2,70.6,30.04,South,177,0.0,0.0,75,0.00,,---,0.03,VWS V15.00,2014-02-21 23:39:00,
2014-02-21 18:44:00,79.0,70.8,30.04,South,171,0.0,0.0,76,0.00,,---,0.03,VWS V15.00,2014-02-21 23:44:00,
2014-02-21 18:45:00,77.5,71.6,30.06,SSE,165,0.0,0.0,82,0.00,,---,0.03,VWS V15.00,2014-02-21 23:45:00,
2014-02-21 18:49:00,78.9,70.7,30.04,South,178,0.0,0.0,76,0.00,,---,0.03,VWS V15.00,2014-02-21 23:49:00,
2014-02-21 18:54:00,78.7,70.9,30.05,SE,131,0.0,0.0,77,0.00,,---,0.03,VWS V15.00,2014-02-21 23:54:00,
2014-02-21 18:59:00,78.6,70.8,30.05,SE,136,0.0,0.0,77,0.00,,---,0.03,VWS V15.00,2014-02-21 23:59:00,
2014-02-21 19:00:00,77.3,71.7,30.06,SE,139,0.0,0.0,83,0.00,,---,0.03,VWS V15.00,2014-02-22 00:00:00,
2014-02-21 19:04:00,78.5,71.1,30.05,South,186,0.0,0.0,78,0.00,,---,0.03,VWS V15.00,2014-02-22 00:04:00,
2014-02-21 19:09:00,78.4,71.3,30.05,SSW,205,0.0,0.0,79,0.00,,---,0.03,VWS V15.00,2014-02-22 00:09:00,
2014-02-21 19:14:00,78.3,71.3,30.05,SSW,203,0.0,0.0,79,0.00,,---,0.03,VWS V15.00,2014-02-22 00:14:00,
2014-02-21 19:15:00,77.0,71.4,30.07,SW,223,0.0,0.0,83,0.00,,---,0.03,VWS V15.00,2014-02-22 00:15:00,
2014-02-21 19:19:00,78.1,71.4,30.05,SE,136,0.0,0.0,80,0.00,,---,0.03,VWS V15.00,2014-02-22 00:19:00,
2014-02-21 19:24:00,77.9,71.6,30.06,East,87,0.0,0.0,81,0.00,,---,0.03,VWS V15.00,2014-02-22 00:24:00,
2014-02-21 19:29:00,77.9,71.6,30.05,SE,139,0.0,0.0,81,0.00,,---,0.03,VWS V15.00,2014-02-22 00:29:00,
2014-02-21 19:30:00,76.6,71.4,30.08,South,179,0.0,0.0,84,0.00,,---,0.03,VWS V15.00,2014-02-22 00:30:00,
2014-02-21 19:34:00,77.8,71.5,30.05,SSE,147,0.0,0.0,81,0.00,,---,0.03,VWS V15.00,2014-02-22 00:34:00,
2014-02-21 19:39:00,77.7,71.8,30.06,South,179,0.0,0.0,82,0.00,,---,0.03,VWS V15.00,2014-02-22 00:39:00,
2014-02-21 19:44:00,77.6,71.7,30.06,South,172,0.0,0.0,82,0.00,,---,0.03,VWS V15.00,2014-02-22 00:44:00,
2014-02-21 19:45:00,76.5,71.3,30.08,South,189,0.0,0.0,84,0.00,,---,0.03,VWS V15.00,2014-02-22 00:45:00,
2014-02-21 19:49:00,77.5,71.6,30.06,SSE,160,0.0,0.0,82,0.00,,---,0.03,VWS V15.00,2014-02-22 00:49:00,
2014-02-21 19:54:00,77.4,71.8,30.06,SSW,207,0.0,0.0,83,0.00,,---,0.03,VWS V15.00,2014-02-22 00:54:00,
2014-02-21 19:59:00,77.3,71.7,30.06,SE,138,0.0,0.0,83,0.00,,---,0.03,VWS V15.00,2014-02-22 00:59:00,
2014-02-21 20:00:00,76.5,71.3,30.08,SE,139,0.0,0.0,84,0.00,,---,0.03,VWS V15.00,2014-02-22 01:00:00,
2014-02-21 20:04:00,77.2,71.6,30.07,South,186,0.0,0.0,83,0.00,,---,0.03,VWS V15.00,2014-02-22 01:04:00,
2014-02-21 20:09:00,77.2,71.6,30.07,South,170,0.0,0.0,83,0.00,,---,0.03,VWS V15.00,2014-02-22 01:09:00,
2014-02-21 20:14:00,77.0,71.4,30.07,SW,226,0.0,0.0,83,0.00,,---,0.03,VWS V15.00,2014-02-22 01:14:00,
2014-02-21 20:15:00,76.3,71.5,30.07,SE,134,0.0,0.0,85,0.00,,---,0.03,VWS V15.00,2014-02-22 01:15:00,
2014-02-21 20:19:00,76.9,71.3,30.08,South,171,0.0,0.0,83,0.00,,---,0.03,VWS V15.00,2014-02-22 01:19:00,
2014-02-21 20:24:00,76.7,71.2,30.08,South,182,0.0,0.0,83,0.00,,---,0.03,VWS V15.00,2014-02-22 01:24:00,
2014-02-21 20:29:00,76.6,71.4,30.08,SSE,167,0.0,0.0,84,0.00,,---,0.03,VWS V15.00,2014-02-22 01:29:00,
2014-02-21 20:30:00,76.1,71.6,30.07,SE,129,0.0,0.0,86,0.00,,---,0.03,VWS V15.00,2014-02-22 01:30:00,
2014-02-21 20:34:00,76.5,71.3,30.08,SE,144,0.0,0.0,84,0.00,,---,0.03,VWS V15.00,2014-02-22 01:34:00,
2014-02-21 20:39:00,76.4,71.2,30.08,WNW,290,0.0,0.0,84,0.00,,---,0.03,VWS V15.00,2014-02-22 01:39:00,
2014-02-21 20:44:00,76.4,71.2,30.08,SSW,203,0.0,0.0,84,0.00,,---,0.03,VWS V15.00,2014-02-22 01:44:00,
2014-02-21 20:45:00,75.9,71.8,30.07,SSE,165,0.0,0.0,87,0.00,,---,0.03,VWS V15.00,2014-02-22 01:45:00,
2014-02-21 20:49:00,76.4,71.2,30.08,SSE,163,0.0,0.0,84,0.00,,---,0.03,VWS V15.00,2014-02-22 01:49:00,
2014-02-21 20:54:00,76.5,71.3,30.08,South,186,0.0,0.0,84,0.00,,---,0.03,VWS V15.00,2014-02-22 01:54:00,
2014-02-21 21:00:00,76.5,71.3,30.08,ESE,106,0.0,0.0,84,0.00,,---,0.03,VWS V15.00,2014-02-22 02:00:00,
2014-02-21 21:05:00,76.4,71.2,30.08,SSE,162,0.0,0.0,84,0.00,,---,0.03,VWS V15.00,2014-02-22 02:05:00,
2014-02-21 21:10:00,76.4,71.6,30.07,SE,141,0.0,0.0,85,0.00,,---,0.03,VWS V15.00,2014-02-22 02:10:00,
2014-02-21 21:15:00,76.3,71.5,30.07,SSE,167,0.0,0.0,85,0.00,,---,0.03,VWS V15.00,2014-02-22 02:15:00,
2014-02-21 21:20:00,76.2,71.4,30.07,SSE,150,0.0,0.0,85,0.00,,---,0.03,VWS V15.00,2014-02-22 02:20:00,
2014-02-21 21:25:00,76.2,71.4,30.07,SSE,148,0.0,0.0,85,0.00,,---,0.03,VWS V15.00,2014-02-22 02:25:00,
2014-02-21 21:30:00,76.1,71.6,30.07,SSE,153,0.0,0.0,86,0.00,,---,0.03,VWS V15.00,2014-02-22 02:30:00,
2014-02-21 21:35:00,76.0,71.5,30.07,SSE,160,0.0,0.0,86,0.00,,---,0.03,VWS V15.00,2014-02-22 02:35:00,
2014-02-21 21:40:00,75.9,71.8,30.07,SE,143,0.0,0.0,87,0.00,,---,0.03,VWS V15.00,2014-02-22 02:40:00,
2014-02-21 21:45:00,75.8,71.7,30.07,SE,129,0.0,0.0,87,0.00,,---,0.03,VWS V15.00,2014-02-22 02:45:00,
2014-02-21 21:50:00,75.8,71.7,30.07,SE,144,0.0,0.0,87,0.00,,---,0.03,VWS V15.00,2014-02-22 02:50:00,
2014-02-21 21:55:00,75.8,71.7,30.06,SSE,158,0.0,0.0,87,0.00,,---,0.03,VWS V15.00,2014-02-22 02:55:00,
2014-02-21 22:00:00,75.8,72.0,30.06,South,179,0.0,0.0,88,0.00,,---,0.03,VWS V15.00,2014-02-22 03:00:00,
2014-02-21 22:05:00,75.8,72.0,30.06,SE,129,0.0,0.0,88,0.00,,---,0.03,VWS V15.00,2014-02-22 03:05:00,
2014-02-21 22:10:00,75.8,72.0,30.06,SE,139,0.0,0.0,88,0.00,,---,0.03,VWS V15.00,2014-02-22 03:10:00,
2014-02-21 22:15:00,75.7,71.9,30.06,South,184,0.0,0.0,88,0.00,,---,0.03,VWS V15.00,2014-02-22 03:15:00,
2014-02-21 22:20:00,75.5,71.7,30.06,SSE,160,0.0,0.0,88,0.00,,---,0.03,VWS V15.00,2014-02-22 03:20:00,
2014-02-21 22:25:00,75.4,71.9,30.06,SE,132,0.0,0.0,89,0.00,,---,0.03,VWS V15.00,2014-02-22 03:25:00,
2014-02-21 22:30:00,75.4,71.9,30.06,ESE,108,0.0,0.0,89,0.00,,---,0.03,VWS V15.00,2014-02-22 03:30:00,
2014-02-21 22:35:00,75.3,71.8,30.07,SE,131,0.0,0.0,89,0.00,,---,0.03,VWS V15.00,2014-02-22 03:35:00,
2014-02-21 22:40:00,75.3,71.8,30.06,South,186,0.0,0.0,89,0.00,,---,0.03,VWS V15.00,2014-02-22 03:40:00,
2014-02-21 22:45:00,75.2,71.7,30.06,South,185,0.0,0.0,89,0.00,,---,0.03,VWS V15.00,2014-02-22 03:45:00,
2014-02-21 22:50:00,75.0,71.5,30.07,SSW,195,0.0,0.0,89,0.00,,---,0.03,VWS V15.00,2014-02-22 03:50:00,
2014-02-21 22:55:00,74.8,71.7,30.07,SSW,195,0.0,0.0,90,0.00,,---,0.03,VWS V15.00,2014-02-22 03:55:00,
2014-02-21 23:00:00,74.6,71.5,30.07,SE,135,0.0,0.0,90,0.00,,---,0.03,VWS V15.00,2014-02-22 04:00:00,
2014-02-21 23:05:00,74.4,71.6,30.07,SE,135,0.0,0.0,91,0.00,,---,0.03,VWS V15.00,2014-02-22 04:05:00,
2014-02-21 23:10:00,74.2,71.4,30.07,SE,135,0.0,0.0,91,0.00,,---,0.03,VWS V15.00,2014-02-22 04:10:00,
2014-02-21 23:15:00,74.0,71.2,30.07,SE,135,0.0,0.0,91,0.00,,---,0.03,VWS V15.00,2014-02-22 04:15:00,
2014-02-21 23:20:00,73.8,71.3,30.06,South,186,0.0,0.0,92,0.00,,---,0.03,VWS V15.00,2014-02-22 04:20:00,
2014-02-21 23:25:00,73.8,71.3,30.06,SSE,157,0.0,0.0,92,0.00,,---,0.03,VWS V15.00,2014-02-22 04:25:00,
2014-02-21 23:30:00,73.7,71.2,30.06,SSW,207,0.0,0.0,92,0.00,,---,0.03,VWS V15.00,2014-02-22 04:30:00,
2014-02-21 23:35:00,73.7,71.6,30.06,SSE,165,0.0,0.0,93,0.00,,---,0.03,VWS V15.00,2014-02-22 04:35:00,
2014-02-21 23:40:00,73.7,71.6,30.06,SSE,162,0.0,0.0,93,0.00,,---,0.03,VWS V15.00,2014-02-22 04:40:00,
2014-02-21 23:45:00,73.7,71.6,30.06,SE,141,0.0,0.0,93,0.00,,---,0.03,VWS V15.00,2014-02-22 04:45:00,
2014-02-21 23:50:00,73.5,71.0,30.07,SE,141,0.0,0.0,92,0.00,,---,0.03,VWS V15.00,2014-02-22 04:50:00,
2014-02-21 23:55:00,73.2,70.7,30.07,SE,141,0.0,0.0,92,0.00,,---,0.03,VWS V15.00,2014-02-22 04:55:00,